Weather in Vapniarka

Ukraine / Vinnytsia Region     48°31′54″N   28°44′48″E
temp.,
°C
wind,
m/s
gust,
m/s
humid.,
%
clouds,
%
prec.,
mm/h
press.,
hPa
HPBL,
m
14 april, wed
wed1400:00+10sse51068100 0.0 1016376
03:00+8sse4972100 0.0 1015387
06:00+8se4878100 0.0 1015320
09:00+8sse5769100 0.1 1015403
12:00+12se565599 0.0 10141033
15:00+13sse5649100 0.1 10131910
18:00+11sse4660100 0.0 1013571
21:00+10sse2469100 0.1 1013133
15 april, thu
thu1500:00+8e0075100 0.0 101310
03:00+8nw2380100 0.2 1012111
06:00+7nnw3592100 3.0 1011207
09:00+7n2388100 4.4 1012181
12:00+9wnw228399 0.1 1012333
15:00+10nnw1380100 1.8 1012323
18:00+9nw4990100 5.9 1012763
21:00+7wnw61087100 11.5 1013568
16 april, fri
fri1600:00+5nw61092100 4.0 1013453
03:00+4wnw5990100 5.4 1013511
06:00+3wnw5995100 0.7 1013567
09:00+2w51099100 4.2 1015429
12:00+2w510100100 4.4 1016413
15:00+4w5998100 8.0 1016684
18:00+6wnw5981100 0.4 1017695
21:00+5wnw4880100 0.4 1019282
17 april, sat
sat1700:00+3wnw359219 0.0 1020109
03:00+2w22935 0.0 102033
06:00+1wnw22947 0.0 102230
09:00+5nw22835 0.0 1022325
12:00+9sw226776 0.0 1022928
15:00+10sse2261100 0.1 10221050
18:00+9ese2270100 0.0 102192
21:00+8e357539 0.0 102294
18 april, sun
sun1800:00+6e367793 0.0 102282
03:00+6e357670 0.0 102167
06:00+4e348326 0.0 102266
09:00+8e467218 0.0 1022399
12:00+11e345827 0.0 10211282
15:00+13e345224 0.0 10201557
18:00+13e455421 0.0 10201467
21:00+9e3572100 0.0 102180